Eugene, OR

3:30 AM PDT on October 18, 2017 (GMT -0700)
Mahlon Sweet

Weather History for KEUG - January, 2013

Change the Weather History Date:

Tuesday, January 1, 2013

  Actual Average Record
Temperature  
Mean Temperature 32 °F 39 °F  
Max Temperature 39 °F 45 °F 61 °F (1940)
Min Temperature 25 °F 34 °F 7 °F (1979)
Degree Days  
Heating Degree Days 32 26  
Month to date heating degree days 26  
Since 1 July heating degree days 1983  
Cooling Degree Days 0 0  
Month to date cooling degree days 0  
Year to date cooling degree days 0  
Moisture  
Dew Point 30 °F    
Average Humidity 91    
Maximum Humidity 100    
Minimum Humidity 71    
Precipitation  
Precipitation 0.00 in 0.24 in 1.43 in (1987)
Month to date precipitation 0.24  
Year to date precipitation 0.24  
Sea Level Pressure  
Sea Level Pressure 30.40 in    
Wind  
Wind Speed 6 mph (North)    
Max Wind Speed 12 mph    
Max Gust Speed -    
Visibility 6 miles    
Events Fog , Rain , Snow    
T = Trace of Precipitation, MM = Missing Value Source: NWS Daily Summary

Daily Weather History Graph

Daily Weather History Graph

Search for Another Location

Airport or City:

Trip Planner

Search our weather history database for the weather conditions in past years. The results will help you decide how hot, cold, wet, or windy it might be!

Date:

Astronomy

Jan. 01, 2013 Rise Set
Actual Time 7:48 AM PST 4:45 PM PST
Civil Twilight 7:15 AM PST 5:18 PM PST
Nautical Twilight 6:38 AM PST 5:54 PM PST
Astronomical Twilight 6:03 AM PST 6:30 PM PST
Moon 9:32 PM PST (1/1) 9:53 AM PST (1/1)
Length of Visible Light 10h 03m
Length of Day
8h 57m
Waning Gibbous, 82% of the Moon is Illuminated
Jan 1
Waning Gibbous
Jan 4
Last Quarter
Jan 11
New
Jan 18
First Quarter
Jan 26
Full

Hourly Weather History & Observations

Time (PST) Temp. Windchill Dew Point Humidity Pressure Visibility Wind Dir Wind Speed Gust Speed Precip Events Conditions
12:54 AM 34.0 °F 31.0 °F 33.1 °F 96% 30.40 in 4.0 mi NNW 3.5 mph - 0.00 in   Overcast
1:54 AM 34.0 °F 28.0 °F 33.1 °F 96% 30.40 in 5.0 mi North 6.9 mph - 0.00 in Snow Light Snow
2:54 AM 33.1 °F 24.9 °F 32.0 °F 96% 30.43 in 7.0 mi North 10.4 mph - 0.00 in Rain Light Rain
3:22 AM 33.8 °F 25.3 °F 33.8 °F 100% 30.42 in 5.0 mi North 11.5 mph - 0.00 in Snow Light Snow
3:39 AM 33.8 °F 27.0 °F 32.0 °F 93% 30.41 in 6.0 mi North 8.1 mph - 0.00 in Snow Light Snow
3:54 AM 34.0 °F 31.0 °F 33.1 °F 96% 30.42 in 6.0 mi North 3.5 mph - 0.00 in Snow Light Snow
4:54 AM 32.0 °F 27.5 °F 30.9 °F 96% 30.41 in 3.0 mi North 4.6 mph - 0.00 in Snow Light Snow
5:02 AM 32.0 °F 26.4 °F 32.0 °F 100% 30.40 in 3.0 mi North 5.8 mph - 0.00 in Snow Light Snow
5:54 AM 32.0 °F 25.6 °F 30.0 °F 92% 30.40 in 4.0 mi North 6.9 mph - 0.00 in   Overcast
6:54 AM 30.9 °F 24.3 °F 30.0 °F 96% 30.40 in 3.0 mi North 6.9 mph - N/A   Overcast
7:04 AM 30.2 °F 24.3 °F 30.2 °F 100% 30.39 in 1.5 mi North 5.8 mph - N/A   Overcast
7:17 AM 32.0 °F 24.8 °F 30.2 °F 93% 30.40 in 0.5 mi North 8.1 mph - N/A Fog Fog
7:54 AM 32.0 °F 24.2 °F 30.9 °F 96% 30.41 in 0.8 mi North 9.2 mph - N/A   Overcast
8:42 AM 32.0 °F 24.2 °F 30.2 °F 93% 30.43 in 1.5 mi North 9.2 mph - N/A   Overcast
8:54 AM 32.0 °F 24.2 °F 30.9 °F 96% 30.45 in 2.0 mi North 9.2 mph - N/A   Overcast
9:01 AM 32.0 °F 24.8 °F 30.2 °F 93% 30.44 in 5.0 mi North 8.1 mph - N/A   Overcast
9:54 AM 32.0 °F 26.4 °F 28.9 °F 88% 30.46 in 8.0 mi North 5.8 mph - N/A   Mostly Cloudy
10:54 AM 33.8 °F 30.8 °F 28.4 °F 81% 30.45 in 10.0 mi NNE 3.5 mph - N/A   Mostly Cloudy
11:05 AM 33.8 °F 27.7 °F 28.4 °F 81% 30.44 in 10.0 mi North 6.9 mph - N/A   Mostly Cloudy
11:54 AM 33.8 °F 27.7 °F 30.2 °F 87% 30.41 in 9.0 mi North 6.9 mph - N/A   Mostly Cloudy
12:54 PM 33.8 °F 30.8 °F 30.2 °F 87% 30.38 in 10.0 mi NNE 3.5 mph - N/A   Mostly Cloudy
1:54 PM 37.4 °F 33.8 °F 32.0 °F 81% 30.36 in 10.0 mi ENE 4.6 mph - N/A   Mostly Cloudy
2:54 PM 37.9 °F 31.5 °F 32.0 °F 79% 30.38 in 10.0 mi North 9.2 mph - N/A   Mostly Cloudy
3:54 PM 37.0 °F 30.4 °F 30.9 °F 79% 30.38 in 10.0 mi NNE 9.2 mph - N/A   Scattered Clouds
4:54 PM 33.1 °F 28.7 °F 30.0 °F 89% 30.38 in 10.0 mi North 4.6 mph - N/A   Scattered Clouds
5:54 PM 30.9 °F 26.2 °F 28.9 °F 92% 30.38 in 10.0 mi West 4.6 mph - N/A   Scattered Clouds
6:54 PM 30.0 °F - 28.0 °F 92% 30.38 in 10.0 mi Calm Calm - N/A   Scattered Clouds
7:54 PM 28.0 °F - 26.1 °F 92% 30.37 in 9.0 mi Calm Calm - N/A   Partly Cloudy
8:54 PM 27.0 °F 23.0 °F 26.1 °F 96% 30.36 in 8.0 mi South 3.5 mph - N/A   Partly Cloudy
9:54 PM 27.0 °F - 26.1 °F 96% 30.35 in 5.0 mi Calm Calm - N/A   Clear
10:54 PM 26.1 °F - 25.0 °F 96% 30.35 in 6.0 mi Calm Calm - N/A   Partly Cloudy
11:33 PM 26.6 °F - 24.8 °F 93% 30.33 in 0.8 mi Calm Calm - N/A   Clear
11:54 PM 25.0 °F - 23.0 °F 92% 30.34 in 2.5 mi Calm Calm - N/A   Clear